Showing default

OPS 9323 (IDSCS 10), 2650

Orbit data source: Space-Track

OPS 9323 (IDSCS 10), 2650 is a payload satellite owned by USAF SSD (US) in GEO that was launched on Wed, 18 Jan 1967 UTC via a TITAN IIIC launch vehicle from the Air Force Eastern Test Range (AFETR). Payloads include a variety of satellites, spacecraft, and rockets equipped with specific instruments for various scientific and technological missions. These include communications satellites like Starlink; space stations such as the ISS; scientific satellites like the Hubble; Earth observation satellites from companies like Planet Labs, Umbra, and HawkEye 360; GPS; miniature CubeSats for education and research; and military/defense satellites.

Loading next visibility...
OPS 9323 (IDSCS 10) details
Identifier
2650, 1967-003C
Orbit
GEO
Last TLE update11 hours ago
Origin
Flag of USUSAF SSD (US)
ManufacturerPhilco-Ford WDL
MissionNon-operational Defense Communications
Bus & MotorIDCSP, Unknown motor
Mass45 kg wet, 45 kg dry
Launch date (UTC)
1967-01-18 (58 years ago)
Launch vehicle
TITAN IIIC
Launch site
Air Force Eastern Test Range (AFETR)
Object type
Payload
Rocket body
Debris
Shape & HBRIco Poly, 0.9 m
Radar Cross Section0.926 m², Medium (>0.1 m² and < 1m²)

Expand to show TLE details & history

TLE from 11 hours ago
0 OPS 9323 (IDSCS 10)
1  2650U 67003C   24356.08285972 -.00000105  00000-0  00000+0 0  9996
2  2650   7.2719  49.5218 0033810  98.1535 251.7850  1.08222236134569
Epoch: 2024-12-21T01:59Z
Definitive object data (Epoch: 2024-12-21T01:59:19.079Z)
Latitude-1.30884°
Longitude-80.79036°
Altitude33,737.246 km
Speed3.151 km/s
True Right ascension02h 36m 42s
True Declination-1° 18' 27"
Sunlit
Object was in daylight at TLE epoch
Visualization TLE readout
Latitude1.37619°
Longitude98.67118°
Altitude33,650.466 km
Speed3.157 km/s
Apparent Right ascension14h 53m 42s
Apparent Declination-4° 53' 54"
Sunlit
Object is in daylight
Visualization observer readout
Local Sidereal Time12:01:45
Azimuth128.125° SE
Elevation30.279°
Doppler factor1
Orbital elements
Apogee altitude33,831.974 km
Perigee altitude33,560.989 km
Semi-major axis40,074.619 km
Eccentricity0.003381
Inclination7.2719°
RAAN49.5218°
Arg. of periapsis98.1535°
True anomaly251.41747°
Mean anomaly251.785°
Eccentric anomaly251.60119°
Mean motion0.27054 °/min
BSTARUnknown
Orbital period1330.65 mins
Loading historical data...
2650 neighbors
Authenticating...
Loading maneuver chart data...
Loading historical data...
Loading historical data...
Loading historical data...
Loading historical data...
Loading historical data...
Loading historical data...
Loading historical data...

OPS 9323 (IDSCS 10) Visibility forecast

Observer location: undefined°, undefined

Span
Click to sort rows by Start time (UTC) header in descending order
Start Az.
Max El. time (UTC)
Max El. Az.
Max El.
End time (UTC)
End Az.
1356 mins2024-12-21 12:59:52.097Z128.14° SE2024-12-21 12:59:52.097Z128.14° SE26.75°2024-12-22 11:35:52.097Z106.169° ESE
|